Flag for Germany Weather past 2 weeks in Bergisch Gladbach, North Rhine-Westphalia, Germany

Now
55 °F

Sunny.


Feels Like: 53 °F
Forecast: 48 / 57 °F
Wind: 10 mph from North

Location: Koeln / Bonn

Current Time: May 25, 2015 at 10:25:55 PM

Latest Report: May 25, 2015 at 9:50 PM


Visibility: 10 mi

Pressure: 29.98 "Hg

Humidity: 63%

Dew point: 43 °F

Location of Bergisch GladbachLocation

Historic Weather in Bergisch Gladbach — Graph

°F

Bergisch Gladbach temperature yesterday

Maximum temperature yesterday: 70 °F (at 4:50 PM)
Minimum temperature yesterday: 54 °F (at 3:20 AM)
Average temperature yesterday: 60 °F

Past Weeks' High & Low Weather Summary

 TemperatureHumidityPressure
High79 °F (May 11, 4:50 PM)94% (May 15, 7:20 AM)30.33 "Hg (May 15, 7:20 AM)
Low39 °F (May 17, 4:50 AM)26% (May 14, 3:50 PM)29.65 "Hg (May 18, 7:20 PM)
Average57 °F64%30.06 "Hg
* Reported May 10 9:20 PM — May 25 9:20 PM, Bergisch Gladbach, Weather by CustomWeather, © 2015

Note: Actual official high and low records may vary slightly from our data, if they occured in-between our weather recording intervals... More about our weather records

Advertising

Bergisch Gladbach weather history for previous 24 hours

 ConditionsComfort  
Time TempWeatherWind HumidityBarometerVisibility
9:20 PM
Mon, May 25
55 °FPartly sunny.7 mph63%29.98 "HgN/A
8:50 PM57 °FPartly sunny.8 mph59%29.98 "HgN/A
8:20 PM59 °FPartly sunny.7 mph59%29.95 "HgN/A
7:50 PM59 °FPartly sunny.9 mph59%29.95 "HgN/A
7:20 PM59 °FPartly sunny.10 mph59%29.95 "HgN/A
6:50 PM59 °FPartly sunny.8 mph59%29.95 "HgN/A
6:20 PM61 °FScattered clouds.9 mph59%29.95 "HgN/A
5:50 PM61 °FScattered clouds.10 mph55%29.95 "HgN/A
5:20 PM61 °FScattered clouds.12 mph63%29.95 "HgN/A
4:50 PM61 °FBroken clouds.9 mph68%29.95 "HgN/A
4:20 PM61 °FPartly sunny.8 mph68%29.95 "HgN/A
3:50 PM61 °FBroken clouds.9 mph72%29.95 "HgN/A
3:20 PM61 °FPartly sunny.6 mph68%29.95 "HgN/A
2:50 PM59 °FBroken clouds.7 mph77%29.95 "HgN/A
2:20 PM57 °FBroken clouds.6 mph88%29.98 "HgN/A
1:50 PM57 °FDrizzle. Partly sunny.6 mph82%29.98 "HgN/A
1:20 PM55 °FPartly sunny.5 mph88%29.98 "HgN/A
12:50 PM54 °FDrizzle. Broken clouds.3 mph94%29.98 "Hg4 mi
12:20 PM54 °FDrizzle. Broken clouds.3 mph88%29.98 "Hg3 mi
11:50 AM54 °FDrizzle. Partly sunny.3 mph88%29.98 "Hg4 mi
11:20 AM54 °FLight rain. Partly sunny.3 mph88%29.98 "HgN/A
10:50 AM54 °FPartly sunny.3 mph82%30.01 "HgN/A
10:20 AM54 °FLight rain. Broken clouds.5 mph82%30.01 "HgN/A
9:50 AM54 °FLight rain. Broken clouds.2 mph82%30.01 "HgN/A
9:20 AM54 °FBroken clouds.2 mph82%30.01 "HgN/A
8:50 AM52 °FPartly sunny.3 mph82%30.01 "HgN/A
8:20 AM52 °FPartly sunny.2 mph88%30.01 "HgN/A
7:50 AM50 °FLight rain. Partly sunny.3 mph88%30.01 "HgN/A
7:20 AM50 °FLight rain. Clear.2 mph88%30.01 "HgN/A
6:50 AM50 °FLight rain. Clear.3 mph88%30.01 "HgN/A
6:20 AM48 °FPartly cloudy.1 mph87%30.01 "HgN/A
5:50 AM48 °FPartly cloudy.1 mph87%30.01 "HgN/A
5:20 AM48 °FClear.3 mph87%30.01 "Hg10 mi
4:50 AM48 °FClear.5 mph87%30.01 "Hg10 mi
4:20 AM46 °FFog.2 mph87%30.01 "HgN/A
3:50 AM48 °FFog.2 mph82%30.01 "HgN/A
3:20 AM48 °FClear.3 mph87%30.01 "Hg10 mi
2:50 AM46 °FClear.2 mph87%30.01 "Hg10 mi
2:20 AM50 °FClear.2 mph82%30.01 "Hg10 mi
1:50 AM50 °FClear.6 mph88%30.04 "Hg10 mi
1:20 AM52 °FClear.3 mph82%30.04 "Hg10 mi
12:50 AM52 °FClear.3 mph82%30.04 "Hg10 mi
12:20 AM52 °FClear.6 mph88%30.04 "Hg10 mi
11:20 PM
Sun, May 24
57 °FClear.2 mph67%30.04 "Hg10 mi
10:50 PM57 °FClear.1 mph72%30.04 "Hg10 mi
10:20 PM59 °FSunny.2 mph63%30.04 "Hg10 mi
Weather by CustomWeather, © 2015

See weather overviewHow to use our weather pages